Current weather by "City, St" or "zip code"  
 

Current Conditions: LOS ANGELES

Mostly Cloudy


73.0 F

Last Updated on Jul 17 2024, 09:53 AM PDT
Humidity: 68%
Wind Speed: S 5.8 mph
Barometer 29.99 in
Dewpoint: 62.1 F
Visibility: 10.00 mi
Precip: --
Heat Index: 73.2 F
Wind Chill: NA
Current conditions at:

LOS ANGELES (KLAX)

Lat: 33.93 Lon: 118.4

active severe weather and emergency alerts image weather storm and storm spotter reports image weather observation monitoring service image
Active
Alerts
Storm Reports Obs
Monitoring

Sign-up For Email & Text Message Weather Alert Notification Services



Advertise Here

Observation History for LOS ANGELES


Time Wind
(mph)
Vis
(mi)
Weather Precip (in) Temperature (F) Relative
Humidity
Wind
Chill
(F)
Heat
Index
(F)
Pressure
Air Dwpt altimeter
(in)
sea level
(mb)
Rmks
09:53 AM PDT S 5.8 10.00 Mostly Cloudy -- 73.0 62.1 68% NA 73.2 29.99 1015.6
07:53 AM PDT 0.0 10.00 Mostly Cloudy -- 69.1 61.0 75% NA NA 29.99 1015.6
06:53 AM PDT 0.0 10.00 Mostly Cloudy -- 66.9 61.0 81% NA NA 29.98 1015.2
05:53 AM PDT 0.0 10.00 Partly Cloudy -- 64.9 60.1 84% NA NA 29.96 1014.6
04:53 AM PDT 0.0 10.00 Mostly Clear -- 66.0 60.1 81% NA NA 29.95 1014.2
03:53 AM PDT 4.7 10.00 Partly Cloudy -- 66.0 61.0 84% NA NA 29.94 1013.9
02:53 AM PDT 0.0 10.00 Mostly Cloudy -- 66.0 60.1 81% NA NA 29.94 1013.9
01:53 AM PDT 3.4 10.00 Clear -- 66.0 60.1 81% NA NA 29.94 1013.9
12:53 AM PDT W 5.8 10.00 Clear -- 66.9 61.0 81% NA NA 29.94 1013.9
11:53 PM PDT W 9.2 10.00 Clear -- 66.0 60.1 81% NA NA 29.95 1014.2
10:53 PM PDT W 9.2 10.00 Clear -- 66.0 61.0 84% NA NA 29.95 1014.2
09:53 PM PDT SW 8.1 10.00 Clear -- 66.9 60.1 79% NA NA 29.94 1013.9
08:53 PM PDT 9.2 10.00 Mostly Clear -- 66.9 59.0 76% NA NA 29.94 1013.6
07:53 PM PDT W 17.2 10.00 Clear -- 69.1 59.0 70% NA NA 29.94 1013.6
06:53 PM PDT W 15.0 10.00 Mostly Clear -- 70.0 59.0 68% NA NA 29.92 1013.2
05:53 PM PDT W 16.1 10.00 Mostly Clear -- 71.1 60.1 68% NA 71.1 29.94 1013.6
04:53 PM PDT W 15.0 10.00 Partly Cloudy -- 72.0 62.1 71% NA 72.1 29.94 1013.9
03:53 PM PDT W 15.0 10.00 Partly Cloudy -- 73.0 63.0 71% NA 73.4 29.96 1014.6
02:53 PM PDT W 15.0 10.00 Mostly Clear -- 73.9 62.1 66% NA 74.1 29.97 1014.9
01:53 PM PDT 13.9 10.00 Partly Cloudy -- 73.9 63.0 69% NA 74.3 29.99 1015.6
12:53 PM PDT 12.8 10.00 Partly Cloudy -- 75.0 63.0 66% NA 75.4 29.99 1015.6
11:53 AM PDT 8.1 9.00 Mostly Clear -- 75.9 63.0 64% NA 76.3 30.00 1015.9
10:53 AM PDT 8.1 9.00 Mostly Clear -- 73.0 62.1 68% NA 73.2 30.01 1016.3
09:53 AM PDT SE 5.8 9.00 Partly Cloudy -- 75.0 61.0 62% NA 75.2 30.01 1016.3

Regional Weather Observation


LOS ANGELES (KLAX)

Mostly Cloudy
73.0 F

HAWTHORNE (KHHR)

Clear
71.1 F

SANTA MONICA (KSMO)

Clear
73.0 F

TORRANCE MUNICIP (KTOA)

Mostly Cloudy
73.4 F

(KCQT)


F

VAN NUYS (KVNY)

Clear
73.9 F

Advertise Here


Advertise Here